Weather in Zelenodolsk

Russia / Republic of Tatarstan     55°50′48″N   48°30′02″E
temp.,
°C
wind,
m/s
gust,
m/s
humid.,
%
clouds,
%
prec.,
mm/h
press.,
hPa
HPBL,
m
17 april, sat
sat1700:00+7ne410695 0.0 1025269
03:00+5ne49705 0.0 1026221
06:00+4ne410675 0.0 1027285
09:00+9ene68505 0.0 1027573
12:00+12ne67362 0.0 10261027
15:00+13ne66335 0.0 10251192
18:00+10ne69540 0.0 1025365
21:00+6ne410710 0.0 1025231
18 april, sun
sun1800:00+4ne38812 0.0 1024171
03:00+3ne33840 0.0 102446
06:00+3ne37803 0.0 1025184
09:00+9ene57550 0.0 1024711
12:00+12ne67435 0.0 10241426
15:00+12ene774420 0.0 10241783
18:00+8ne811635 0.0 1025844
21:00+5ene6115641 0.0 1027502
19 april, mon
mon1900:00+3ene6125324 0.0 1028465
03:00+2ene61261100 0.0 1029526
06:00+1ene71357100 0.0 1030642
09:00+4e91140100 0.0 10311152
12:00+6e91131100 0.0 10301547
15:00+7e9112885 0.0 10301713
18:00+6e71135100 0.0 1030900
21:00+3e71439100 0.0 1031614
20 april, tue
tue2000:00+2e61445100 0.0 1032469
03:000e613538 0.0 1032363
06:00+1ese613560 0.0 1033433
09:00+5ese810360 0.0 1033982
12:00+8ese810310 0.0 10321316
15:00+9ese810280 0.0 10311496
18:00+8ese6113694 0.0 1029515
21:00+5se61544100 0.0 1029454
21 april, wed
wed2100:00+4se71647100 0.0 1029505
03:00+3se81651100 0.0 1028616
06:00+2se9175392 0.0 1027656
09:00+6se101543100 0.0 1026923
12:00+6sse91651100 0.3 1026999
15:00+5sse91757100 1.3 1025930
18:00+4sse101871100 0.4 1025880
21:00+4sse91683100 0.8 1025697